パンスターズ彗星

C/2015 ER61 ( PanSTARRS )

English version
Home page
Updated on May 21, 2018

---------------------------------------------------------------------

・ プロフィール

発見日 2015年3月14日
発見光度 20.7等
発見者 Pan-STARRS 1 telescope (Haleakala)

・ 写真集

・ 軌道要素

C/2015 ER61 (PANSTARRS)
Epoch 2017 May 7.0 TT = JDT 2457880.5
T 2017 May  9.94359 TT                                  MPCW
q   1.0421357            (2000.0)            P               Q
z  +0.0025762      Peri.   68.19278     +0.54600662     +0.83284293
 +/-0.0000001      Node   235.22113     -0.80369408     +0.49009418
e   0.9973153      Incl.    6.34878     -0.23654299     +0.25725541
From 2617 observations 2015 Jan. 21-2018 Mar. 24, mean residual 0".6.

C/2015 ER61-B (PANSTARRS)
Epoch 2017 May 7.0 TT = JDT 2457880.5
T 2017 May  9.92133 TT                                  MPCW
q   1.0438546            (2000.0)            P               Q
z  +0.0012708      Peri.   68.28210     +0.54781018     +0.83165107
 +/-0.0000572      Node   235.25620     -0.80263026     +0.49181009
e   0.9986735      Incl.    6.35035     -0.23598448     +0.25783586
From 52 observations 2017 June 11-Dec. 17, mean residual 1".1.

・ 星図

・ 光度変化

        m1 = 3.0 + 5 logΔ + 15.0 log r  [    ,-390]  (              〜2016年 4月14日)
        m1 = 6.5 + 5 logΔ + 10.0 log r  [-390,   0]  (2016年 4月14日〜2017年 5月 9日)
        m1 = 6.5 + 5 logΔ + 15.0 log r  [   0,    ]  (2017年 5月 9日〜              )

---------------------------------------------------------------------

軌道要素はM.P.E.C. 2018-F152に掲載されたものです。
B核の軌道要素はM.P.E.C. 2018-B155に掲載されたものです。
星図はステラナビゲータ Ver.10 (アストロアーツ) で作成したものです。
光度グラフはComet for Windowsで作成したものです。

---------------------------------------------------------------------

Copyright(C) Seiichi Yoshida (comet@aerith.net). All rights reserved.